SCP
0 0 0 0 0 0 0 0 0 0 0 0 0 0 0 0 0 0 0 0 0 0 0 0 0 0 0 0 0 0 0 0 0 0 0 0 0 0 0 0 0 0 0 0 0 0 0 0 0
0 0 0 0 0 0 0 0 0 0 0 0 0 0 0 0 0 0 0 0 0 0 0 0 0 0 0 0 0 0 0 0 0 0 0 0 0 0 0 0 0 0 0 0 0 0 0 0 0
0 0 0 0 0 0 0 0 0 0 0 0 0 0 0 0 0 0 0 0 0 0 0 0 0 0 0 0 0 0 0 0 0 0 0 0 0 0 0 0 0 0 0 0 0 0 0 0 0
0 0 0 0 0 0 0 0 0 0 0 0 0 0 0 0 0 0 0 0 0 0 0 0 0 0 0 0 0 0 0 0 0 0 0 0 0 0 0 0 0 0 0 0 0 0 0 0 0
0 0 0 0 0 0 0 0 0 0 0 0 0 0 0 0 0 0 0 0 0 0 0 0 0 0 0 0 0 0 0 0 0 0 0 0 0 0 0 0 0 0 0 0 0 0 0 0 0
0 0 0 0 0 0 0 0 0 0 0 0 0 0 0 0 0 0 0 0 0 0 0 0 0 0 0 0 0 0 0 0 0 0 0 0 0 0 0 0 0 0 0 0 0 0 0 0 0
0 0 0 0 0 0 0 0 0 0 0 0 0 0 0 0 0 0 0 0 0 0 0 0 0 0 0 0 0 0 0 0 0 0 0 0 0 0 0 0 0 0 0 0 0 0 0 0 0
0 0 0 0 0 0 0 0 0 0 0 0 0 0 0 0 0 0 0 0 0 0 0 0 0 0 0 0 0 0 0 0 0 0 0 0 0 0 0 0 0 0 0 0 0 0 0 0 0
0 0 0 0 0 0 0 0 0 0 0 0 0 0 0 0 0 0 0 0 0 0 0 0 0 0 0 0 0 0 0 0 0 0 0 0 0 0 0 0 0 0 0 0 0 0 0 0 0
0 0 0 0 0 0 0 0 0 0 0 0 0 0 0 0 0 0 0 0 0 0 0 0 0 0 0 0 0 0 0 0 0 0 0 0 0 0 0 0 0 0 0 0 0 0 0 0 0
0 0 0 0 0 0 0 0 0 0 0 0 0 0 0 0 0 0 0 0 0 0 0 0 0 0 0 0 0 0 0 0 0 0 0 0 0 0 0 0 0 0 0 0 0 0 0 0 0
0 0 0 0 0 0 0 0 0 0 0 0 0 0 0 0 0 0 0 0 0 0 0 0 0 0 0 0 0 0 0 0 0 0 0 0 0 0 0 0 0 0 0 0 0 0 0 0 0
0 0 0 0 0 0 0 0 0 0 0 0 0 0 0 0 0 0 0 0 0 0 0 0 0 0 0 0 0 0 0 0 0 0 0 0 0 0 0 0 0 0 0 0 0 0 0 0 0
0 0 0 0 0 0 0 0 0 0 0 0 0 0 0 0 0 0 0 0 0 0 0 0 0 0 0 0 0 0 0 0 0 0 0 0 0 0 0 0 0 0 0 0 0 0 0 0 0
0 0 0 0 0 0 0 0 0 0 0 0 0 0 0 0 0 0 0 0 0 0 0 0 0 0 0 0 0 0 0 0 0 0 0 0 0 0 0 0 0 0 0 0 0 0 0 0 0
0 0 0 0 0 0 0 0 0 0 0 0 0 0 0 0 0 0 0 0 0 0 0 0 0 0 0 0 0 0 0 0 0 0 0 0 0 0 0 0 0 0 0 0 0 0 0 0 0
0 0 0 0 0 0 0 0 0 0 0 0 0 0 0 0 0 0 0 0 0 0 0 0 0 0 0 0 0 0 0 0 0 0 0 0 0 0 0 0 0 0 0 0 0 0 0 0 0
0 0 0 0 0 0 0 0 0 0 0 0 0 0 0 0 0 0 0 0 0 0 0 0 0 0 0 0 0 0 0 0 0 0 0 0 0 0 0 0 0 0 0 0 0 0 0 0 0
0 0 0 0 0 0 0 0 0 0 0 0 0 0 0 0 0 0 0 0 0 0 0 0 0 0 0 0 0 0 0 0 0 0 0 0 0 0 0 0 0 0 0 0 0 0 0 0 0
0 0 0 0 0 0 0 0 0 0 0 0 0 0 0 0 0 0 0 0 0 0 0 0 0 0 0 0 0 0 0 0 0 0 0 0 0 0 0 0 0 0 0 0 0 0 0 0 0
0 0 0 0 0 0 0 0 0 0 0 0 0 0 0 0 0 0 0 0 0 0 0 0 0 0 0 0 0 0 0 0 0 0 0 0 0 0 0 0 0 0 0 0 0 0 0 0 0
0 0 0 0 0 0 0 0 0 0 0 0 0 0 0 0 0 0 0 0 0 0 0 0 0 0 0 0 0 0 0 0 0 0 0 0 0 0 0 0 0 0 0 0 0 0 0 0 0
0 0 0 0 0 0 0 0 0 0 0 0 0 0 0 0 0 0 0 0 0 0 0 0 0 0 0 0 0 0 0 0 0 0 0 0 0 0 0 0 0 0 0 0 0 0 0 0 0
0 0 0 0 0 0 0 0 0 0 0 0 0 0 0 0 0 0 0 0 0 0 0 0 0 0 0 0 0 0 0 0 0 0 0 0 0 0 0 0 0 0 0 0 0 0 0 0 0
0 0 0 0 0 0 0 0 0 0 0 0 0 0 0 0 0 0 0 0 0 0 0 0 0 0 0 0 0 0 0 0 0 0 0 0 0 0 0 0 0 0 0 0 0 0 0 0 0
0 0 0 0 0 0 0 0 0 0 0 0 0 0 0 0 0 0 0 0 0 0 0 0 0 0 0 0 0 0 0 0 0 0 0 0 0 0 0 0 0 0 0 0 0 0 0 0 0
0 0 0 0 0 0 0 0 0 0 0 0 0 0 0 0 0 0 0 0 0 0 0 0 0 0 0 0 0 0 0 0 0 0 0 0 0 0 0 0 0 0 0 0 0 0 0 0 0
0 0 0 0 0 0 0 0 0 0 0 0 0 0 0 0 0 0 0 0 0 0 0 0 0 0 0 0 0 0 0 0 0 0 0 0 0 0 0 0 0 0 0 0 0 0 0 0 0
0 0 0 0 0 0 0 0 0 0 0 0 0 0 0 0 0 0 0 0 0 0 0 0 0 0 0 0 0 0 0 0 0 0 0 0 0 0 0 0 0 0 0 0 0 0 0 0 0
-0 -0 0 0 0 0 0 0 0 0 0 0 -0 -0 0 0 0 0 0 0 0 0 0 0 0 0 0 0 0 0 0 0 0 0 0 0 0 0 0 0 0 0 0 0 0 0 0 0 0
Wind_Speed
15 11 6 3 3 2 3 0 3 4 4 5 7 6 7 8 7 7 3 5 5 5 5 5 7 7 8 8 8 9 9 10 10 11 11 11 11 11 10 10 10 10 10 10 10 10 10 10 9
10 8 4 3 3 3 1 1 4 5 6 5 5 5 7 8 7 6 3 4 4 5 5 6 7 8 9 9 9 9 9 9 10 10 11 11 11 11 10 10 10 9 9 9 9 9 9 9 9
10 7 3 2 2 2 0 3 6 7 5 4 4 6 7 6 6 4 3 3 4 6 6 7 8 9 9 9 10 9 9 10 10 10 10 11 10 10 11 10 9 9 9 9 9 8 8 8 8
5 3 2 2 2 1 1 5 6 5 4 5 5 7 6 6 4 4 4 4 5 6 6 7 8 9 9 9 9 9 9 9 10 9 10 10 10 10 10 10 10 9 9 9 9 8 8 8 8
3 2 3 3 1 1 3 5 5 3 3 4 4 5 6 5 6 6 4 4 5 5 6 7 8 8 9 9 9 9 9 9 9 9 8 9 9 9 9 9 9 9 9 8 8 8 8 8 8
3 2 3 4 3 2 3 4 2 3 4 4 4 4 5 4 6 5 4 4 4 5 6 6 8 8 8 8 8 8 8 8 8 8 8 8 8 9 9 8 8 8 9 9 8 8 7 7 7
2 2 3 3 3 2 2 3 2 2 4 4 3 4 4 3 4 3 3 4 4 5 5 4 4 5 7 7 7 7 7 7 7 7 7 7 7 8 8 8 8 8 8 8 8 7 7 7 6
3 1 3 3 2 2 2 2 2 3 4 4 4 3 3 2 3 3 4 4 4 4 4 3 3 3 3 3 5 5 5 6 6 6 5 5 5 5 6 6 6 6 7 6 6 7 6 6 6
3 1 2 1 1 3 3 2 3 4 4 4 4 5 5 5 4 3 3 4 4 4 3 3 2 2 2 2 3 3 3 4 4 3 3 3 1 2 3 4 5 6 6 5 5 6 6 5 5
2 1 1 2 2 3 3 2 2 2 2 3 4 6 7 5 4 3 3 3 3 4 3 2 2 2 1 1 2 1 1 1 1 1 1 1 1 1 2 3 4 5 4 4 4 4 4 3 2
2 1 1 2 4 3 3 3 1 1 1 2 4 5 5 4 3 2 2 2 2 2 3 3 2 2 2 1 1 1 1 1 1 1 1 1 1 1 1 1 1 1 1 1 2 3 2 2 2
3 3 2 2 3 1 2 2 1 1 2 4 6 6 5 3 2 2 2 2 2 3 4 4 3 3 2 2 2 1 1 1 1 1 2 2 1 1 1 1 1 1 1 1 1 1 2 2 3
3 2 3 3 4 3 3 2 1 1 2 5 6 5 4 2 1 1 2 2 2 2 3 3 3 3 2 2 2 2 1 1 2 2 2 2 1 1 1 1 1 1 1 1 1 1 2 2 3
4 4 3 2 2 2 2 1 1 1 4 5 5 4 3 2 2 1 1 1 2 2 2 3 3 3 3 3 2 2 2 2 2 2 2 2 2 1 1 1 1 1 1 1 1 1 2 2 2
4 3 2 2 2 1 1 1 1 3 5 4 3 3 3 2 2 1 1 1 1 2 2 2 2 3 3 3 2 2 2 2 2 2 2 3 2 2 1 1 1 1 1 1 1 1 1 1 2
3 3 2 2 1 1 1 1 2 3 4 3 3 3 2 2 1 1 1 1 1 1 2 2 2 3 2 2 1 1 2 2 2 2 2 2 2 2 1 1 1 1 1 1 1 1 1 1 1
2 2 2 2 2 1 1 1 1 2 3 2 3 3 2 2 1 1 1 1 0 1 1 1 1 2 2 2 1 2 2 2 2 2 2 2 2 2 1 1 1 1 1 1 1 1 1 1 1
1 1 1 2 2 1 1 1 1 2 2 2 2 3 2 1 1 1 1 1 1 1 0 1 1 2 1 1 1 1 2 2 2 2 2 2 2 2 2 1 2 1 1 1 1 1 1 1 1
1 1 1 1 2 1 1 2 3 3 2 2 2 2 2 1 1 1 1 1 1 1 0 1 1 1 1 1 1 1 1 1 1 1 2 2 2 2 2 1 2 2 1 1 1 1 1 1 1
1 1 1 2 2 0 1 4 4 3 4 3 3 3 2 1 0 0 1 1 1 1 0 0 1 1 1 1 1 0 0 0 0 1 1 1 2 2 1 1 1 1 1 1 1 1 0 0 1
2 1 1 1 2 3 2 3 3 3 4 4 3 3 2 3 3 2 1 1 1 0 1 1 0 0 1 1 1 1 1 1 0 1 1 1 1 1 1 1 1 1 1 0 0 0 0 1 1
0 2 1 0 1 1 1 2 3 4 4 5 4 4 3 3 3 3 2 1 1 1 0 0 0 0 1 1 1 1 0 1 1 1 1 0 0 1 1 1 0 0 0 0 0 0 0 0 1
1 1 0 1 1 1 1 2 4 4 3 5 5 4 4 3 3 3 2 2 1 1 1 0 0 0 1 1 1 1 1 1 1 0 0 0 1 0 0 0 0 0 0 0 0 0 0 0 1
0 1 1 1 1 2 3 2 4 3 4 3 4 4 3 2 2 2 2 2 1 1 1 1 1 1 1 1 1 1 1 1 1 1 1 1 1 0 0 0 0 0 0 0 0 0 0 0 0
1 1 1 1 1 3 2 2 6 2 2 2 2 3 3 3 2 2 2 2 2 2 1 1 1 1 1 1 1 1 1 1 1 2 1 1 1 0 0 0 0 0 0 0 0 0 0 0 0
1 1 2 1 2 2 1 5 5 1 2 2 2 2 2 2 3 3 2 2 2 2 2 2 2 2 1 1 1 1 1 1 1 0 0 1 0 0 1 1 1 1 1 0 1 1 0 0 0
0 1 0 1 1 2 4 4 3 1 2 2 3 3 2 3 3 3 3 3 3 3 3 3 3 2 2 2 1 1 1 1 0 0 0 0 0 0 0 1 1 1 1 1 1 1 0 0 0
1 0 1 2 0 3 4 4 4 4 5 4 3 3 3 2 2 3 3 3 3 3 2 2 3 3 2 2 2 1 1 1 1 1 0 0 0 0 1 1 1 1 1 1 1 0 0 0 0
2 1 1 1 1 2 3 5 1 4 5 4 3 2 2 2 3 3 3 3 2 2 2 2 3 3 2 2 2 1 1 2 1 1 1 1 1 1 1 1 1 0 0 0 0 0 1 1 1
1 1 3 3 3 3 3 7 1 1 2 2 3 2 3 3 3 3 3 3 3 3 3 3 3 2 2 2 2 2 1 1 1 1 1 1 1 1 1 1 1 0 0 0 0 1 1 1 2
Wind_Direction
308 289 270 258 239 220 233 188 87 74 59 42 39 45 57 42 37 92 79 47 56 80 92 80 72 77 74 72 73 78 85 85 80 77 73 70 69 71 71 70 67 67 68 67 65 63 61 58 53
299 293 273 245 244 228 203 116 94 66 71 66 51 49 68 69 57 77 45 22 53 77 86 86 69 71 72 72 73 74 76 81 78 76 72 68 67 67 66 66 63 63 65 65 64 62 60 56 52
282 267 271 257 251 277 142 76 83 82 78 64 63 44 50 61 64 56 32 23 61 74 77 77 71 73 72 69 69 71 75 75 76 75 71 67 64 64 64 63 59 61 61 60 60 59 58 55 51
280 246 244 256 237 4 35 79 83 90 84 53 75 81 73 48 42 50 40 45 68 76 78 77 70 72 72 69 69 69 71 73 71 71 70 67 64 62 63 61 57 57 56 56 55 55 54 52 48
245 249 228 232 228 49 55 76 91 89 101 84 75 84 87 55 53 60 45 47 65 76 79 80 69 68 69 69 67 67 70 70 68 65 67 66 62 60 61 59 56 54 51 51 52 51 51 49 45
258 244 225 217 170 131 69 65 84 84 80 72 63 84 97 63 51 47 45 49 63 76 83 86 70 67 66 66 65 64 66 67 65 61 61 65 63 60 59 56 51 50 50 47 50 50 49 49 46
275 268 252 220 167 146 83 62 65 71 77 56 29 79 107 68 55 53 54 58 61 76 86 90 91 83 70 66 65 64 62 62 63 59 55 58 63 60 55 50 46 46 47 44 47 47 45 44 43
293 274 242 239 201 140 97 72 41 50 74 52 27 82 115 93 69 64 66 60 56 55 67 82 93 96 96 85 73 68 63 58 60 57 48 48 58 62 56 49 42 43 42 43 47 46 43 40 36
296 240 236 279 219 118 115 96 43 40 77 71 46 50 95 101 89 69 65 53 46 43 43 51 66 82 97 107 92 87 75 60 61 57 46 39 46 61 59 51 40 37 36 41 46 45 41 35 31
355 186 223 343 22 116 131 107 100 114 117 99 79 75 96 99 100 89 71 53 40 30 20 36 47 43 61 87 101 106 91 86 66 52 15 355 20 46 55 54 45 35 31 35 34 33 31 26 27
52 104 127 27 47 103 132 118 111 195 199 136 127 119 114 114 109 100 79 63 48 34 18 15 40 42 43 44 71 55 68 68 53 38 354 5 28 61 63 56 54 39 30 28 19 24 20 16 26
96 61 51 50 50 68 116 123 115 14 44 69 108 122 115 114 110 91 66 44 45 32 17 2 27 38 35 37 35 48 56 55 50 22 10 19 17 47 50 58 35 29 3 18 25 32 24 29 30
107 111 64 67 72 76 82 71 72 31 87 97 109 115 127 137 118 79 68 42 51 40 23 7 22 30 34 41 26 36 50 60 46 37 20 23 16 22 29 35 33 6 4 35 27 35 35 35 36
102 109 102 77 80 66 83 44 69 96 116 113 120 118 122 119 97 63 63 59 45 32 30 10 20 31 33 42 37 28 43 51 51 43 35 28 22 21 34 23 21 6 8 10 32 41 49 37 39
131 115 109 100 100 111 95 346 186 141 132 129 127 120 116 106 99 82 47 69 69 54 45 24 16 36 32 38 35 37 44 43 43 39 44 36 21 18 27 30 27 353 349 11 36 59 62 61 45
180 174 147 121 132 152 193 260 97 141 141 140 134 127 129 127 108 80 51 60 50 68 66 32 28 60 36 27 31 37 53 52 40 35 40 37 17 13 7 13 15 334 353 27 41 70 62 55 42
180 181 151 135 122 119 181 244 108 131 154 162 156 150 150 143 132 125 87 85 86 89 97 53 62 74 49 22 27 48 56 56 47 43 36 22 9 4 19 7 356 354 15 37 38 56 85 76 31
141 139 130 127 96 85 177 253 189 168 188 193 172 162 163 157 162 118 106 101 83 80 90 115 101 89 77 48 30 41 52 44 47 50 35 19 11 11 12 3 350 359 28 30 40 41 30 78 41
51 107 112 86 80 36 243 276 260 193 185 204 189 174 182 185 115 102 97 105 112 100 93 137 125 130 117 45 21 1 22 25 33 42 31 15 9 5 14 6 356 355 15 18 19 54 59 56 58
329 140 79 76 82 353 269 273 253 194 186 188 195 199 194 189 134 111 107 101 153 155 135 210 171 159 146 51 39 15 331 277 173 44 39 20 6 353 1 5 349 344 2 28 14 30 23 332 34
12 341 53 21 326 243 252 273 190 184 178 177 198 215 206 195 196 202 193 177 166 175 214 254 352 103 104 95 69 28 337 301 1 7 3 350 347 343 353 346 337 341 4 86 33 60 53 234 272
121 29 41 318 322 271 238 270 225 177 183 192 198 210 219 212 201 193 187 198 203 203 200 203 124 111 136 140 146 169 258 259 248 234 247 280 307 320 328 332 324 342 359 64 241 95 260 195 242
61 16 282 285 299 287 248 244 263 169 198 208 198 202 213 205 207 205 184 185 190 160 158 174 162 167 180 189 195 209 251 273 269 271 242 323 326 347 359 350 358 341 326 357 9 30 63 206 238
217 259 216 260 324 270 221 214 264 205 203 202 193 194 196 188 198 188 163 154 162 148 156 182 187 209 197 201 221 224 239 278 301 301 312 305 302 312 20 44 197 212 225 231 275 331 25 191 289
237 58 40 7 314 248 163 221 250 221 160 175 183 186 175 177 181 182 175 175 187 182 189 205 221 246 245 227 252 258 255 259 267 259 241 254 270 315 319 35 35 117 98 76 95 92 63 127 207
281 33 124 206 247 284 200 238 249 138 123 123 144 167 173 184 192 188 185 195 203 204 199 205 220 242 248 241 246 254 249 231 252 278 229 216 222 307 360 51 51 62 74 80 114 104 95 93 162
26 85 80 113 61 289 247 246 261 148 182 182 183 182 201 200 191 186 186 197 203 204 206 206 212 223 231 226 218 213 214 209 210 85 63 106 83 63 82 104 90 62 64 62 72 85 68 107 173
341 81 106 117 131 280 267 244 234 210 216 200 197 199 201 188 186 189 195 198 199 204 212 211 214 217 221 212 205 203 203 197 189 113 67 52 130 123 114 88 87 65 60 70 75 28 297 101 294
155 162 178 154 198 212 272 264 244 187 189 193 201 190 185 194 200 198 196 194 188 193 207 216 222 221 214 208 201 199 194 184 174 159 179 210 201 166 144 153 136 113 62 64 128 269 332 327 300
278 218 177 177 229 217 248 266 309 113 133 169 196 197 190 195 199 196 190 187 186 195 210 222 221 212 206 198 188 190 188 173 175 183 203 197 194 183 175 161 150 179 240 222 259 284 290 277 285